Location: Keppel Henge
(44.7900°N, 80.9447°W)
Time: 20:14:03
(UTC-04:00)

Envisat - Pass Details

Date: 15 October 2017
Orbit: 764 x 766 km, 98.2° (Epoch: 23 October)

Event Time Altitude Azimuth Distance (km) Brightness Sun altitude
Exits shadow 19:43:02 16° 78° (ENE) 1,906 4.4 -12.2°
Maximum altitude 19:44:15 18° 60° (ENE) 1,835 4.5 -12.4°
Drops below altitude 10° 19:47:32 10° 20° (NNE) 2,311 5.3 -13.0°
Sets 19:50:32 0° 1° (N) 3,242 6.2 -13.5°
